Weather History for Canton, GA

Change the Weather History Date:

Friday, October 19, 2012

  Actual Average (KGVL) Record (KGVL)
Temperature  
Mean Temperature 56 °F 61 °F  
Max Temperature 71 °F 71 °F 88 °F (1938)
Min Temperature 42 °F 51 °F 33 °F (1948)
Degree Days  
Heating Degree Days 8 5  
Month to date heating degree days 64  
Since 1 July heating degree days 77  
Cooling Degree Days 0 1  
Month to date cooling degree days 32  
Year to date cooling degree days 1573  
Growing Degree Days 6 (Base 50)    
Moisture  
Dew Point 23 °F    
Average Humidity 38    
Maximum Humidity 81    
Minimum Humidity 4    
Precipitation  
Precipitation 0.00 in 0.12 in 3.44 in (1937)
Month to date precipitation 2.74  
Snow  
Snow - - - ()
Month to date snowfall  
Since 1 July snowfall  
Since 1 September snowfall  
Snow Depth -    
Sea Level Pressure  
Sea Level Pressure 29.82 in    
Wind  
Wind Speed 2 mph ()    
Max Wind Speed 15 mph    
Max Gust Speed 28 mph    
Visibility 10.0 miles    
Events      
T = Trace of Precipitation, MM = Missing Value Source: Averaged Metar Reports

Daily Weather History Graph

Daily Weather History Graph

Search for Another Location

Airport:

Trip Planner

Search our weather history database for the weather conditions in past years. The results will help you decide how hot, cold, wet, or windy it might be!

Date:

Astronomy

Oct. 19, 2012 Rise Set
Actual Time 7:46 AM EDT 6:57 PM EDT
Civil Twilight 7:21 AM EDT 7:23 PM EDT
Nautical Twilight 6:52 AM EDT 7:52 PM EDT
Astronomical Twilight 6:22 AM EDT 8:21 PM EDT
Moon 12:19 PM EDT (10/19) 10:43 PM EDT (10/19)
Length of Visible Light 12h 02m
Length of Day
11h 11m
Waxing Crescent, 23% of the Moon is Illuminated
Oct 19
Waxing Crescent
Oct 21
First Quarter
Oct 29
Full
Nov 6
Last Quarter
Nov 13
New

Hourly Weather History & Observations

Time (EDT) Temp. Windchill Dew Point Humidity Pressure Visibility Wind Dir Wind Speed Gust Speed Precip Events Conditions
2:35 AM 53.6 °F - 37.4 °F 54% 29.85 in 10.0 mi Calm Calm - N/A   Clear
2:55 AM 51.8 °F - 41.0 °F 67% 29.85 in 10.0 mi Calm Calm - N/A   Clear
3:15 AM 51.8 °F - 35.6 °F 54% 29.85 in 10.0 mi Calm Calm - N/A   Clear
3:35 AM 51.8 °F - 35.6 °F 54% 29.85 in 10.0 mi Calm Calm - N/A   Clear
3:55 AM 50.0 °F - 35.6 °F 58% 29.84 in 10.0 mi Calm Calm - N/A   Clear
4:15 AM 50.0 °F - 37.4 °F 62% 29.84 in 10.0 mi Calm Calm - N/A   Clear
4:35 AM 46.4 °F - 37.4 °F 71% 29.83 in 10.0 mi Calm Calm - N/A   Clear
4:55 AM 44.6 °F - 39.2 °F 81% 29.83 in 10.0 mi Calm Calm - N/A   Clear
5:15 AM 48.2 °F - 37.4 °F 66% 29.83 in 10.0 mi Calm Calm - N/A   Clear
5:35 AM 44.6 °F - 37.4 °F 76% 29.83 in 10.0 mi Calm Calm - N/A   Clear
5:55 AM 46.4 °F - 39.2 °F 76% 29.83 in 10.0 mi Calm Calm - N/A   Clear
6:15 AM 44.6 °F - 37.4 °F 76% 29.83 in 10.0 mi Calm Calm - N/A   Clear
6:35 AM 44.6 °F - 37.4 °F 76% 29.83 in 10.0 mi Calm Calm - N/A   Clear
6:55 AM 42.8 °F - 37.4 °F 81% 29.83 in 10.0 mi Calm Calm - N/A   Clear
7:15 AM 42.8 °F - 37.4 °F 81% 29.83 in 10.0 mi Calm Calm - N/A   Clear
7:35 AM 42.8 °F - 37.4 °F 81% 29.83 in 10.0 mi Calm Calm - N/A   Clear
7:55 AM 44.6 °F - 39.2 °F 81% 29.83 in 10.0 mi Calm Calm - N/A   Clear
8:15 AM 44.6 °F - 33.8 °F 66% 29.83 in 10.0 mi Calm Calm - N/A   Clear
8:35 AM 42.8 °F 41.1 °F 35.6 °F 76% 29.84 in 10.0 mi South 3.5 mph - N/A   Clear
8:55 AM 44.6 °F - 37.4 °F 76% 29.84 in 10.0 mi Calm Calm - N/A   Clear
9:15 AM 48.2 °F - 37.4 °F 66% 29.84 in 10.0 mi Calm Calm - N/A   Clear
9:35 AM 50.0 °F - 39.2 °F 66% 29.84 in 10.0 mi Calm Calm - N/A   Clear
9:55 AM 51.8 °F - 37.4 °F 58% 29.84 in 10.0 mi Calm Calm - N/A   Clear
10:15 AM 53.6 °F - 37.4 °F 54% 29.84 in 10.0 mi SSE 4.6 mph - N/A   Clear
10:35 AM 55.4 °F - 35.6 °F 47% 29.84 in 10.0 mi SW 3.5 mph - N/A   Clear
10:55 AM 57.2 °F - 37.4 °F 48% 29.84 in 10.0 mi Calm Calm - N/A   Clear
11:15 AM 60.8 °F - 26.6 °F 27% 29.83 in 10.0 mi West 6.9 mph - N/A   Clear
11:35 AM 62.6 °F - 26.6 °F 26% 29.84 in 10.0 mi WSW 3.5 mph - N/A   Clear
11:55 AM 64.4 °F - 26.6 °F 24% 29.83 in 10.0 mi WSW 3.5 mph - N/A   Clear
12:15 PM 66.2 °F - 15.8 °F 14% 29.83 in 10.0 mi SW 6.9 mph - N/A   Clear
12:35 PM 66.2 °F - 14.0 °F 13% 29.84 in 10.0 mi SW 11.5 mph 17.3 mph N/A   Clear
12:55 PM 68.0 °F - 10.4 °F 11% 29.83 in 10.0 mi SW 15.0 mph 26.5 mph N/A   Clear
1:15 PM 68.0 °F - 10.4 °F 11% 29.83 in 10.0 mi WSW 9.2 mph 16.1 mph N/A   Clear
1:35 PM 68.0 °F - -2.2 °F 6% 29.82 in 10.0 mi SW 15.0 mph 27.6 mph N/A   Clear
1:55 PM 69.8 °F - 5.0 °F 8% 29.80 in 10.0 mi WSW 5.8 mph 16.1 mph N/A   Clear
2:15 PM 69.8 °F - -0.4 °F 6% 29.79 in 10.0 mi WSW 5.8 mph - N/A   Clear
2:35 PM 69.8 °F - -4.0 °F 5% 29.78 in 10.0 mi WSW 5.8 mph 17.3 mph N/A   Clear
2:55 PM 69.8 °F - -16.6 °F 4% 29.78 in 10.0 mi SW 13.8 mph 23.0 mph N/A   Clear
3:15 PM 71.6 °F - -7.6 °F 4% 29.77 in 10.0 mi WSW 12.7 mph 17.3 mph N/A   Clear
3:35 PM 69.8 °F - 1.4 °F 7% 29.77 in 10.0 mi West 6.9 mph 19.6 mph N/A   Clear
3:55 PM 69.8 °F - 1.4 °F 7% 29.77 in 10.0 mi SW 9.2 mph - N/A   Clear
4:15 PM 69.8 °F - 3.2 °F 7% 29.77 in 10.0 mi WSW 5.8 mph 19.6 mph N/A   Clear
4:35 PM 69.8 °F - 6.8 °F 9% 29.77 in 10.0 mi West 5.8 mph 16.1 mph N/A   Clear
4:55 PM 69.8 °F - 8.6 °F 9% 29.76 in 10.0 mi WSW 4.6 mph 16.1 mph N/A   Clear
5:15 PM 68.0 °F - 8.6 °F 10% 29.76 in 10.0 mi WSW 8.1 mph 16.1 mph N/A   Clear
5:35 PM 68.0 °F - 6.8 °F 9% 29.77 in 10.0 mi SW 9.2 mph - N/A   Clear
5:55 PM 68.0 °F - 10.4 °F 11% 29.77 in 10.0 mi West 4.6 mph 16.1 mph N/A   Clear
6:15 PM 66.2 °F - 12.2 °F 12% 29.77 in 10.0 mi SW 5.8 mph - N/A   Clear
6:35 PM 64.4 °F - 14.0 °F 14% 29.77 in 10.0 mi SW 4.6 mph - N/A   Clear
6:55 PM 64.4 °F - 15.8 °F 15% 29.78 in 10.0 mi Calm Calm - N/A   Clear
7:15 PM 62.6 °F - 17.6 °F 18% 29.78 in 10.0 mi West 3.5 mph - N/A   Clear
7:35 PM 60.8 °F - 21.2 °F 22% 29.79 in 10.0 mi Calm Calm - N/A   Clear
7:55 PM 59.0 °F - 24.8 °F 27% 29.80 in 10.0 mi West 3.5 mph - N/A   Clear
8:15 PM 59.0 °F - 23.0 °F 25% 29.81 in 10.0 mi WNW 3.5 mph - N/A   Clear
8:35 PM 57.2 °F - 26.6 °F 31% 29.82 in 10.0 mi Calm Calm - N/A   Clear
8:55 PM 55.4 °F - 23.0 °F 29% 29.83 in 10.0 mi West 3.5 mph - N/A   Clear
9:15 PM 57.2 °F - 23.0 °F 27% 29.83 in 10.0 mi Calm Calm - N/A   Clear
9:35 PM 57.2 °F - 23.0 °F 27% 29.84 in 10.0 mi West 3.5 mph - N/A   Clear
9:55 PM 57.2 °F - 23.0 °F 27% 29.83 in 10.0 mi Calm Calm - N/A   Clear
10:15 PM 57.2 °F - 23.0 °F 27% 29.84 in 10.0 mi Calm Calm - N/A   Clear
10:35 PM 55.4 °F - 26.6 °F 33% 29.84 in 10.0 mi Calm Calm - N/A   Clear
10:55 PM 55.4 °F - 26.6 °F 33% 29.84 in 10.0 mi Calm Calm - N/A   Clear
11:15 PM 55.4 °F - 26.6 °F 33% 29.84 in 10.0 mi Calm Calm - N/A   Clear
11:35 PM 55.4 °F - 26.6 °F 33% 29.84 in 10.0 mi Calm Calm - N/A   Clear
11:55 PM 55.4 °F - 28.4 °F 36% 29.84 in 10.0 mi Calm Calm - N/A   Clear